Time,TemperatureF,DewpointF,PressureIn,WindDirection,WindDirectionDegrees,WindSpeedMPH,WindSpeedGustMPH,Humidity,HourlyPrecipIn,Conditions,Clouds,dailyrainin,SoftwareType,DateUTC
2013-05-14 00:00:00,39.3,35.0,30.02,WNW,292,0.0,0.0,83,0.00,,,0.00,weatherlink.com 1.10,2013-05-14 04:00:00,
2013-05-14 00:15:00,38.0,34.0,30.02,WNW,292,0.0,0.0,86,0.00,,,0.00,weatherlink.com 1.10,2013-05-14 04:15:00,
2013-05-14 00:30:00,36.8,34.0,30.02,WNW,292,1.0,2.0,88,0.00,,,0.00,weatherlink.com 1.10,2013-05-14 04:30:00,
2013-05-14 00:45:00,36.2,34.0,30.01,WNW,294,0.0,0.0,90,0.00,,,0.00,weatherlink.com 1.10,2013-05-14 04:45:00,
2013-05-14 01:00:00,35.9,33.0,30.01,WNW,294,0.0,0.0,90,0.00,,,0.00,weatherlink.com 1.10,2013-05-14 05:00:00,
2013-05-14 01:15:00,35.2,33.0,30.01,WNW,294,0.0,1.0,90,0.00,,,0.00,weatherlink.com 1.10,2013-05-14 05:15:00,
2013-05-14 01:30:00,34.4,32.0,30.02,WNW,294,0.0,0.0,91,0.00,,,0.00,weatherlink.com 1.10,2013-05-14 05:30:00,
2013-05-14 01:45:00,33.7,31.0,30.02,WNW,294,0.0,0.0,91,0.00,,,0.00,weatherlink.com 1.10,2013-05-14 05:45:00,
2013-05-14 02:01:00,33.3,31.0,30.02,WNW,294,0.0,0.0,92,0.00,,,0.00,weatherlink.com 1.10,2013-05-14 06:01:00,
2013-05-14 02:16:00,33.4,32.0,30.02,WNW,294,0.0,0.0,93,0.00,,,0.00,weatherlink.com 1.10,2013-05-14 06:16:00,
2013-05-14 02:31:00,33.8,32.0,30.02,WNW,294,0.0,0.0,94,0.00,,,0.00,weatherlink.com 1.10,2013-05-14 06:31:00,
2013-05-14 02:46:00,34.4,33.0,30.02,WNW,294,0.0,0.0,94,0.00,,,0.00,weatherlink.com 1.10,2013-05-14 06:46:00,
2013-05-14 03:01:00,34.9,33.0,30.02,WNW,294,0.0,0.0,94,0.00,,,0.00,weatherlink.com 1.10,2013-05-14 07:01:00,
2013-05-14 03:16:00,35.1,33.0,30.02,WNW,294,0.0,1.0,93,0.00,,,0.00,weatherlink.com 1.10,2013-05-14 07:16:00,
2013-05-14 03:31:00,34.9,33.0,30.02,WNW,294,0.0,0.0,93,0.00,,,0.00,weatherlink.com 1.10,2013-05-14 07:31:00,
2013-05-14 03:46:00,34.3,32.0,30.02,WNW,294,0.0,0.0,92,0.00,,,0.00,weatherlink.com 1.10,2013-05-14 07:46:00,
2013-05-14 04:01:00,33.7,32.0,30.02,WNW,294,0.0,0.0,92,0.00,,,0.00,weatherlink.com 1.10,2013-05-14 08:01:00,
2013-05-14 04:16:00,33.1,31.0,30.03,WNW,294,0.0,0.0,93,0.00,,,0.00,weatherlink.com 1.10,2013-05-14 08:16:00,
2013-05-14 04:31:00,32.5,31.0,30.03,WNW,294,0.0,0.0,93,0.00,,,0.00,weatherlink.com 1.10,2013-05-14 08:31:00,
2013-05-14 04:46:00,32.2,30.0,30.04,WNW,294,0.0,0.0,93,0.00,,,0.00,weatherlink.com 1.10,2013-05-14 08:46:00,
2013-05-14 05:01:00,31.8,30.0,30.03,WNW,294,0.0,0.0,93,0.00,,,0.00,weatherlink.com 1.10,2013-05-14 09:01:00,
2013-05-14 05:16:00,32.0,31.0,30.04,WNW,294,0.0,1.0,95,0.00,,,0.00,weatherlink.com 1.10,2013-05-14 09:16:00,
2013-05-14 05:31:00,32.1,31.0,30.04,WNW,294,0.0,1.0,95,0.00,,,0.00,weatherlink.com 1.10,2013-05-14 09:31:00,
2013-05-14 05:46:00,32.0,31.0,30.04,WNW,294,0.0,0.0,95,0.00,,,0.00,weatherlink.com 1.10,2013-05-14 09:46:00,
2013-05-14 06:01:00,31.1,30.0,30.04,WNW,294,0.0,0.0,94,0.00,,,0.00,weatherlink.com 1.10,2013-05-14 10:01:00,
2013-05-14 06:16:00,31.2,30.0,30.05,WNW,294,0.0,0.0,95,0.00,,,0.00,weatherlink.com 1.10,2013-05-14 10:16:00,
2013-05-14 06:31:00,32.6,32.0,30.04,WNW,294,0.0,0.0,96,0.00,,,0.00,weatherlink.com 1.10,2013-05-14 10:31:00,
2013-05-14 06:48:00,34.3,33.0,30.04,NW,306,0.0,3.0,96,0.00,,,0.00,weatherlink.com 1.10,2013-05-14 10:48:00,
2013-05-14 07:16:00,37.1,35.0,30.05,NW,305,0.0,3.0,91,0.00,,,0.00,weatherlink.com 1.10,2013-05-14 11:16:00,
2013-05-14 07:31:00,38.9,35.0,30.05,NW,305,0.0,1.0,87,0.00,,,0.00,weatherlink.com 1.10,2013-05-14 11:31:00,
2013-05-14 07:46:00,40.8,36.0,30.05,NW,305,0.0,1.0,83,0.00,,,0.00,weatherlink.com 1.10,2013-05-14 11:46:00,
2013-05-14 08:01:00,42.9,36.0,30.05,NW,305,1.0,2.0,76,0.00,,,0.00,weatherlink.com 1.10,2013-05-14 12:01:00,
2013-05-14 08:16:00,45.2,33.0,30.05,WNW,292,9.0,12.0,63,0.00,,,0.00,weatherlink.com 1.10,2013-05-14 12:16:00,
2013-05-14 08:31:00,46.5,33.0,30.05,West,271,8.0,10.0,59,0.00,,,0.00,weatherlink.com 1.10,2013-05-14 12:31:00,
2013-05-14 08:46:00,45.7,31.0,30.05,West,275,11.0,17.0,57,0.00,,,0.00,weatherlink.com 1.10,2013-05-14 12:46:00,
2013-05-14 09:01:00,46.6,31.0,30.05,West,261,4.0,20.0,54,0.00,,,0.00,weatherlink.com 1.10,2013-05-14 13:01:00,
2013-05-14 09:16:00,47.6,30.0,30.04,WNW,296,1.0,16.0,51,0.00,,,0.00,weatherlink.com 1.10,2013-05-14 13:16:00,
2013-05-14 09:31:00,47.6,29.0,30.04,WNW,283,4.0,15.0,49,0.00,,,0.00,weatherlink.com 1.10,2013-05-14 13:31:00,
2013-05-14 09:46:00,48.5,29.0,30.03,NW,323,11.0,15.0,47,0.00,,,0.00,weatherlink.com 1.10,2013-05-14 13:46:00,
2013-05-14 10:01:00,48.6,28.0,30.03,NNW,333,5.0,20.0,46,0.00,,,0.00,weatherlink.com 1.10,2013-05-14 14:01:00,
2013-05-14 10:16:00,49.5,29.0,30.02,NW,306,7.0,14.0,45,0.00,,,0.00,weatherlink.com 1.10,2013-05-14 14:16:00,
2013-05-14 10:31:00,49.4,28.0,30.02,NW,319,6.0,17.0,44,0.00,,,0.00,weatherlink.com 1.10,2013-05-14 14:31:00,
2013-05-14 10:46:00,50.1,28.0,30.02,West,278,8.0,15.0,42,0.00,,,0.00,weatherlink.com 1.10,2013-05-14 14:46:00,
2013-05-14 11:01:00,50.1,27.0,30.02,WNW,289,10.0,16.0,41,0.00,,,0.00,weatherlink.com 1.10,2013-05-14 15:01:00,
2013-05-14 11:16:00,50.8,27.0,30.02,WNW,282,7.0,15.0,40,0.00,,,0.00,weatherlink.com 1.10,2013-05-14 15:16:00,
2013-05-14 11:32:00,51.5,28.0,30.02,WNW,289,5.0,12.0,40,0.00,,,0.00,weatherlink.com 1.10,2013-05-14 15:32:00,
2013-05-14 11:47:00,51.5,26.0,30.02,WNW,302,14.0,18.0,37,0.00,,,0.00,weatherlink.com 1.10,2013-05-14 15:47:00,
2013-05-14 12:02:00,52.2,27.0,30.01,NW,307,7.0,15.0,38,0.00,,,0.00,weatherlink.com 1.10,2013-05-14 16:02:00,
2013-05-14 12:17:00,52.9,28.0,30.01,WNW,287,9.0,18.0,38,0.00,,,0.00,weatherlink.com 1.10,2013-05-14 16:17:00,
2013-05-14 12:32:00,53.2,25.0,30.01,WNW,290,3.0,17.0,33,0.00,,,0.00,weatherlink.com 1.10,2013-05-14 16:32:00,
2013-05-14 12:47:00,54.3,26.0,30.00,NW,322,10.0,13.0,34,0.00,,,0.00,weatherlink.com 1.10,2013-05-14 16:47:00,
2013-05-14 13:02:00,54.1,26.0,30.00,NNW,330,6.0,11.0,34,0.00,,,0.00,weatherlink.com 1.10,2013-05-14 17:02:00,
2013-05-14 13:17:00,54.6,27.0,30.00,WNW,299,2.0,15.0,34,0.00,,,0.00,weatherlink.com 1.10,2013-05-14 17:17:00,
2013-05-14 13:32:00,55.3,27.0,30.00,NNW,335,2.0,13.0,34,0.00,,,0.00,weatherlink.com 1.10,2013-05-14 17:32:00,
2013-05-14 13:47:00,54.7,26.0,30.00,NE,55,6.0,15.0,33,0.00,,,0.00,weatherlink.com 1.10,2013-05-14 17:47:00,
2013-05-14 14:04:00,55.2,26.0,30.00,WNW,299,5.0,19.0,32,0.00,,,0.00,weatherlink.com 1.10,2013-05-14 18:04:00,
2013-05-14 14:17:00,54.6,25.0,29.99,NNW,333,6.0,14.0,32,0.00,,,0.00,weatherlink.com 1.10,2013-05-14 18:17:00,
2013-05-14 14:32:00,55.5,26.0,29.98,NW,317,11.0,16.0,32,0.00,,,0.00,weatherlink.com 1.10,2013-05-14 18:32:00,
2013-05-14 14:47:00,54.9,26.0,29.98,WNW,298,9.0,14.0,33,0.00,,,0.00,weatherlink.com 1.10,2013-05-14 18:47:00,
2013-05-14 15:02:00,56.7,25.0,29.97,NNW,333,7.0,14.0,30,0.00,,,0.00,weatherlink.com 1.10,2013-05-14 19:02:00,
2013-05-14 15:17:00,56.9,26.0,29.97,West,278,7.0,11.0,30,0.00,,,0.00,weatherlink.com 1.10,2013-05-14 19:17:00,
2013-05-14 15:32:00,56.2,24.0,29.96,WSW,249,6.0,16.0,29,0.00,,,0.00,weatherlink.com 1.10,2013-05-14 19:32:00,
2013-05-14 15:47:00,56.9,25.0,29.95,WNW,284,4.0,13.0,29,0.00,,,0.00,weatherlink.com 1.10,2013-05-14 19:47:00,
2013-05-14 16:17:00,56.2,24.0,29.95,NW,308,5.0,14.0,29,0.00,,,0.00,weatherlink.com 1.10,2013-05-14 20:17:00,
2013-05-14 16:32:00,56.7,26.0,29.95,NW,311,5.0,15.0,31,0.00,,,0.00,weatherlink.com 1.10,2013-05-14 20:32:00,
2013-05-14 16:47:00,57.0,26.0,29.91,NNW,328,8.0,13.0,30,0.00,,,0.00,weatherlink.com 1.10,2013-05-14 20:47:00,
2013-05-14 17:02:00,56.9,26.0,29.90,WNW,291,4.0,13.0,30,0.00,,,0.00,weatherlink.com 1.10,2013-05-14 21:02:00,
2013-05-14 17:17:00,56.5,25.0,29.93,West,263,2.0,14.0,30,0.00,,,0.00,weatherlink.com 1.10,2013-05-14 21:17:00,
2013-05-14 17:32:00,55.6,24.0,29.93,NNW,331,1.0,10.0,29,0.00,,,0.00,weatherlink.com 1.10,2013-05-14 21:32:00,
2013-05-14 17:47:00,56.0,24.0,29.90,WNW,284,9.0,12.0,29,0.00,,,0.00,weatherlink.com 1.10,2013-05-14 21:47:00,
2013-05-14 18:02:00,55.0,24.0,29.91,West,266,7.0,11.0,30,0.00,,,0.00,weatherlink.com 1.10,2013-05-14 22:02:00,
2013-05-14 18:17:00,54.8,25.0,29.94,West,277,1.0,9.0,31,0.00,,,0.00,weatherlink.com 1.10,2013-05-14 22:17:00,
2013-05-14 18:32:00,54.9,25.0,29.94,WNW,292,1.0,6.0,32,0.00,,,0.00,weatherlink.com 1.10,2013-05-14 22:32:00,
2013-05-14 18:47:00,55.1,26.0,29.95,NW,319,0.0,5.0,32,0.00,,,0.00,weatherlink.com 1.10,2013-05-14 22:47:00,
2013-05-14 19:02:00,54.0,26.0,29.95,WNW,303,2.0,3.0,34,0.00,,,0.00,weatherlink.com 1.10,2013-05-14 23:02:00,
2013-05-14 19:17:00,53.9,26.0,29.96,WNW,283,0.0,4.0,34,0.00,,,0.00,weatherlink.com 1.10,2013-05-14 23:17:00,
2013-05-14 19:32:00,52.3,29.0,29.96,WNW,283,0.0,1.0,41,0.00,,,0.00,weatherlink.com 1.10,2013-05-14 23:32:00,
2013-05-14 19:47:00,51.3,29.0,29.97,WSW,237,0.0,1.0,43,0.00,,,0.00,weatherlink.com 1.10,2013-05-14 23:47:00,
2013-05-14 20:02:00,49.2,33.0,29.97,WSW,237,0.0,0.0,54,0.00,,,0.00,weatherlink.com 1.10,2013-05-15 00:02:00,
2013-05-14 20:17:00,47.7,34.0,29.98,SW,236,0.0,1.0,59,0.00,,,0.00,weatherlink.com 1.10,2013-05-15 00:17:00,
2013-05-14 20:32:00,46.1,34.0,29.99,SW,236,0.0,0.0,62,0.00,,,0.00,weatherlink.com 1.10,2013-05-15 00:32:00,
2013-05-14 20:47:00,44.7,34.0,30.00,SW,236,0.0,0.0,66,0.00,,,0.00,weatherlink.com 1.10,2013-05-15 00:47:00,
2013-05-14 21:02:00,43.4,34.0,30.00,SW,236,0.0,0.0,70,0.00,,,0.00,weatherlink.com 1.10,2013-05-15 01:02:00,
2013-05-14 21:19:00,42.4,34.0,30.01,SW,236,0.0,0.0,73,0.00,,,0.00,weatherlink.com 1.10,2013-05-15 01:19:00,
2013-05-14 21:32:00,42.0,34.0,30.01,SW,236,0.0,0.0,74,0.00,,,0.00,weatherlink.com 1.10,2013-05-15 01:32:00,
2013-05-14 21:47:00,41.4,34.0,30.02,SW,236,0.0,0.0,76,0.00,,,0.00,weatherlink.com 1.10,2013-05-15 01:47:00,
2013-05-14 22:02:00,40.4,34.0,30.02,SW,236,0.0,0.0,78,0.00,,,0.00,weatherlink.com 1.10,2013-05-15 02:02:00,
2013-05-14 22:17:00,39.3,33.0,30.03,SW,236,0.0,0.0,79,0.00,,,0.00,weatherlink.com 1.10,2013-05-15 02:17:00,
2013-05-14 22:32:00,38.0,33.0,30.03,SW,236,0.0,0.0,81,0.00,,,0.00,weatherlink.com 1.10,2013-05-15 02:32:00,
2013-05-14 22:47:00,37.1,32.0,30.03,SW,236,0.0,0.0,83,0.00,,,0.00,weatherlink.com 1.10,2013-05-15 02:47:00,
2013-05-14 23:02:00,36.3,32.0,30.03,SW,236,0.0,0.0,85,0.00,,,0.00,weatherlink.com 1.10,2013-05-15 03:02:00,
2013-05-14 23:17:00,35.7,32.0,30.03,SW,236,0.0,0.0,87,0.00,,,0.00,weatherlink.com 1.10,2013-05-15 03:17:00,
2013-05-14 23:32:00,35.2,32.0,30.03,SW,236,0.0,0.0,88,0.00,,,0.00,weatherlink.com 1.10,2013-05-15 03:32:00,
2013-05-14 23:48:00,34.7,32.0,30.04,SW,236,0.0,0.0,89,0.00,,,0.00,weatherlink.com 1.10,2013-05-15 03:48:00,